SCP
0 0 0 0 0 0 0 0 0 0 0 0 0 0 0 0 0 0 0 0 0 0 0 0 0 0 0 0 0 0 0 0 0 0 0 0 0 0
0 0 0 0 0 0 0 0 0 0 0 0 0 0 0 0 0 0 0 0 0 0 0 0 0 0 0 0 0 0 0 0 0 0 0 0 0 0
0 0 0 0 0 0 0 0 0 0 0 0 0 0 0 0 0 0 0 0 0 0 0 0 0 0 0 0 0 0 0 0 0 0 0 0 0 0
0 0 0 0 0 0 0 0 0 0 0 0 0 0 0 0 0 0 0 0 0 0 0 0 0 0 0 0 0 0 0 0 0 0 0 0 0 0
0 0 0 0 0 0 0 0 0 0 0 0 0 0 0 0 0 0 0 0 0 0 0 0 0 0 0 0 0 0 0 0 0 0 0 0 0 0
0 0 0 0 0 0 0 0 0 0 0 0 0 0 0 0 0 0 0 0 0 0 0 0 0 0 0 0 0 0 0 0 0 0 0 0 0 0
0 0 0 0 0 0 0 0 0 0 0 0 0 0 0 0 0 0 0 0 0 0 0 0 0 0 0 0 0 0 0 0 0 0 0 0 0 0
0 0 0 0 0 0 0 0 0 0 0 0 0 0 0 0 0 0 0 0 0 0 0 0 0 0 0 0 0 0 0 0 0 0 0 0 0 0
0 0 0 0 0 0 0 0 0 0 0 0 0 0 0 0 0 0 0 0 0 0 0 0 0 0 0 0 0 0 0 0 0 0 0 0 0 0
0 0 0 0 0 0 0 0 0 0 0 0 0 0 0 0 0 0 0 0 0 0 0 0 0 0 0 0 0 0 0 0 0 0 0 0 0 0
0 0 0 0 0 0 0 0 0 0 0 0 0 0 0 0 0 0 0 0 0 0 0 0 0 0 0 0 0 0 0 0 0 0 0 0 0 0
0 0 0 0 0 0 0 0 0 0 0 0 0 0 0 0 0 0 0 0 0 0 0 0 0 0 0 0 0 0 0 0 0 0 0 0 0 0
0 0 0 0 0 0 0 0 0 0 0 0 0 0 0 0 0 0 0 0 0 0 0 0 0 0 0 0 0 0 0 0 0 0 0 0 0 0
0 0 0 0 0 0 0 0 0 0 0 0 0 0 0 0 0 0 0 0 0 0 0 0 0 0 0 0 0 0 0 0 0 0 0 0 0 0
0 0 0 0 0 0 0 0 0 0 0 0 0 0 0 0 0 0 0 0 0 0 0 0 0 0 0 0 0 0 0 0 0 0 0 0 0 0
0 0 0 0 0 0 0 0 0 0 0 0 0 0 0 0 0 0 0 0 0 0 0 0 0 0 0 0 0 0 0 0 0 0 0 0 0 0
0 0 0 0 0 0 0 0 0 0 0 0 0 0 0 0 0 0 0 0 0 0 0 0 0 0 0 0 0 0 0 0 0 0 0 0 0 0
0 0 0 0 0 0 0 0 0 0 0 0 0 0 0 0 0 0 0 0 0 0 0 0 0 0 0 0 0 0 0 0 0 0 0 0 0 0
0 0 0 0 0 0 0 0 0 0 0 0 0 0 0 0 0 0 0 0 0 0 0 0 0 0 0 0 0 0 0 0 0 0 0 0 0 0
0 0 0 0 0 0 0 0 0 0 0 0 0 0 0 0 0 0 0 0 0 0 0 0 0 0 0 0 0 0 0 0 0 0 0 0 0 0
0 0 0 0 0 0 0 0 0 0 0 0 0 0 0 0 0 0 0 0 0 0 0 0 0 0 0 0 0 0 0 0 0 0 0 0 0 0
0 0 0 0 0 0 0 -0 0 0 -0 0 0 0 0 0 0 0 0 0 0 0 0 0 0 0 0 0 0 0 0 0 0 0 0 0 0 0
0 0 0 0 0 0 0 0 0 -0 -0 0 0 0 0 0 0 0 0 0 0 0 0 0 0 0 0 0 0 0 0 0 0 0 0 0 0 0
Wind_Speed
16 16 15 12 10 10 9 9 9 10 10 8 7 7 8 8 15 10 9 19 24 24 24 24 25 25 25 26 26 26 27 27 27 28 29 29 30 30
13 14 16 12 10 10 10 9 10 12 12 5 8 6 8 9 15 11 10 22 25 24 24 24 25 25 26 26 26 27 27 27 28 29 29 30 30 31
15 15 17 14 11 10 10 10 11 11 15 8 6 6 8 9 9 7 7 9 10 23 25 25 25 26 26 26 27 27 27 28 28 29 30 30 31 32
16 16 17 13 15 12 11 13 12 12 13 14 7 7 10 9 8 8 9 10 8 19 25 26 26 26 26 26 27 27 28 28 29 29 30 31 32 32
15 16 16 15 16 13 13 13 12 12 12 12 10 7 8 7 7 8 10 8 10 15 22 24 26 26 26 26 27 27 27 28 29 29 30 31 32 33
14 15 15 16 16 15 14 14 12 12 11 11 11 9 8 6 6 8 9 8 10 10 15 17 21 25 26 26 26 27 27 28 29 30 31 31 32 33
13 13 15 19 22 18 13 11 12 12 11 11 12 10 10 8 9 7 10 8 8 8 8 10 10 9 11 19 24 25 27 29 29 30 31 32 32 33
13 13 14 19 24 30 30 26 21 16 14 13 12 13 12 12 9 9 8 8 8 6 8 10 8 9 9 8 19 26 28 28 30 31 31 32 32 32
12 11 11 12 19 14 21 29 27 30 27 17 16 15 13 11 11 11 11 10 11 6 5 9 7 10 8 12 24 26 28 29 30 30 31 32 32 33
10 11 12 11 12 13 12 14 14 15 18 17 15 14 13 10 11 12 11 11 10 7 7 10 8 9 10 8 20 25 27 28 29 30 31 31 32 32
9 10 11 11 19 25 16 14 14 13 21 26 24 21 24 25 17 10 10 9 11 9 7 7 7 8 8 9 13 23 26 27 28 29 30 30 31 31
7 8 16 16 20 24 15 13 15 13 11 12 16 19 17 18 24 14 11 10 8 6 6 6 5 4 7 6 7 7 11 20 26 28 29 30 30 20
7 6 8 19 22 24 21 13 17 14 10 11 10 9 8 8 9 9 9 9 9 8 5 6 5 5 7 8 6 7 8 9 11 15 21 26 28 24
8 6 8 18 21 23 18 18 22 19 9 9 9 9 9 9 8 9 10 10 10 9 7 6 6 7 8 11 11 6 6 8 10 12 11 19 23 27
7 13 15 18 18 15 19 21 17 10 8 9 9 9 8 7 6 6 7 7 8 8 8 8 8 7 8 11 12 11 10 9 9 10 10 11 12 12
8 11 16 16 13 13 13 11 8 7 8 8 7 6 5 6 6 6 6 5 5 7 8 9 10 10 10 11 12 13 11 9 7 9 11 12 12 12
6 4 4 4 5 5 6 6 6 6 7 6 7 6 6 6 6 5 5 5 6 6 6 5 7 8 11 10 12 13 12 12 11 11 12 13 12 11
8 4 5 5 5 6 6 6 6 6 6 5 6 6 6 6 6 5 5 6 7 7 7 5 4 5 6 8 14 14 12 12 11 11 11 14 15 11
5 4 4 5 5 5 5 5 6 6 5 5 6 6 6 6 5 6 6 6 7 7 6 5 5 6 10 12 8 12 11 11 11 11 11 12 15 13
3 4 4 4 4 5 5 5 4 4 4 5 5 5 6 5 5 6 6 6 7 7 6 5 6 7 10 11 11 9 14 13 11 13 12 11 13 17
4 3 3 3 4 4 4 4 4 5 4 4 5 5 5 5 5 5 6 10 8 7 8 7 8 12 8 7 10 10 8 14 17 14 13 12 13 12
3 3 3 3 3 4 4 4 4 4 5 4 4 5 5 5 6 6 6 6 6 7 8 7 6 6 6 9 12 13 13 11 14 22 22 21 13 10
4 3 3 3 3 3 3 4 5 4 4 4 4 4 4 5 5 5 6 6 6 7 7 7 6 6 7 9 11 11 14 14 11 11 11 17 23 27
Wind_Direction
230 228 230 229 222 220 214 208 225 251 250 212 217 216 216 216 231 232 224 243 251 256 259 262 265 267 269 271 273 275 277 278 279 280 280 281 281 282
228 228 229 228 224 219 218 217 219 235 255 213 213 202 208 221 231 228 223 242 251 257 260 262 264 266 268 270 272 274 275 277 278 279 280 280 281 281
230 229 231 224 223 219 217 216 221 223 246 242 207 206 206 221 234 228 224 234 247 255 260 262 264 265 267 269 271 273 275 277 278 279 280 280 281 281
233 230 232 225 224 220 219 221 222 220 233 246 223 213 218 219 223 230 237 239 236 252 257 261 263 264 266 268 270 272 274 276 278 279 279 280 280 280
233 230 231 224 226 222 220 222 221 223 224 236 238 222 225 221 222 234 239 239 241 250 257 260 262 263 265 267 270 272 275 276 277 278 279 279 278 278
236 232 229 224 226 222 222 221 219 220 221 230 237 230 230 218 214 232 244 235 243 246 252 255 259 262 265 268 271 274 276 278 278 278 278 278 278 277
241 236 231 230 230 228 225 218 215 219 221 227 233 232 230 221 222 221 238 244 243 237 244 249 253 255 259 265 270 273 276 277 277 277 277 277 277 275
243 239 236 241 242 241 238 231 219 217 219 223 227 229 228 225 224 224 231 239 251 220 227 244 237 246 247 244 261 269 273 275 276 277 277 277 276 275
238 237 236 234 239 234 242 244 239 230 223 217 226 227 226 221 218 225 227 231 241 229 224 253 241 250 249 256 266 270 274 277 278 278 278 278 277 276
237 232 232 232 229 226 224 231 234 236 235 229 226 227 226 221 213 222 230 240 247 236 221 255 253 253 257 252 265 270 274 276 278 279 279 278 277 276
243 233 232 230 235 238 231 228 231 233 240 240 238 233 230 230 223 222 225 235 249 242 214 234 250 258 259 258 260 268 272 275 278 280 281 281 280 279
250 238 244 242 240 243 235 226 229 228 223 233 241 247 241 237 234 222 215 228 242 242 203 210 236 251 273 249 242 251 263 272 276 279 280 280 281 279
256 242 236 251 250 245 239 229 233 228 218 222 226 230 232 229 229 223 213 218 232 241 207 198 229 234 254 274 260 249 252 261 269 273 277 278 278 277
259 246 240 250 252 251 247 237 236 237 220 214 220 223 223 224 223 220 217 220 226 235 223 206 230 240 259 273 279 265 247 256 265 271 269 275 277 277
264 261 259 257 255 252 249 245 238 229 216 213 217 220 217 216 210 212 219 225 232 235 231 220 229 241 247 264 275 279 283 274 261 263 268 270 271 272
278 273 272 269 259 248 244 246 232 220 217 216 214 212 200 200 208 208 216 218 236 248 233 224 227 234 250 258 267 275 274 273 269 267 272 272 268 263
265 251 245 247 245 237 225 223 220 221 224 209 205 203 203 207 212 205 208 213 230 249 255 240 230 234 242 254 266 268 271 271 271 273 276 276 270 262
276 248 239 233 235 236 227 218 214 216 214 205 200 201 204 207 212 209 209 219 237 247 250 250 254 270 267 252 241 259 264 268 272 272 270 276 278 269
277 261 248 234 231 226 222 217 214 210 200 199 203 202 204 206 210 217 219 229 240 247 249 243 241 255 274 281 258 238 258 272 277 275 270 269 275 279
268 263 259 239 224 220 218 215 209 198 194 199 199 198 199 205 214 221 224 231 243 250 255 246 238 241 254 273 281 271 263 266 273 277 278 275 272 275
269 262 258 241 227 217 212 206 200 198 195 192 194 195 197 203 218 223 228 242 248 252 257 257 251 263 269 273 276 275 265 266 271 274 279 281 282 279
268 262 253 238 226 216 208 200 199 200 197 197 198 198 200 207 220 227 231 240 247 251 259 266 266 268 261 265 274 282 288 285 278 278 273 269 270 271
268 260 250 238 229 217 208 203 202 205 201 200 201 202 205 217 225 229 233 240 249 256 264 272 272 265 263 264 273 280 287 292 294 290 280 274 269 265